Weather History for New Haven, CT

Change the Weather History Date:

Wednesday, August 27, 2014

  Actual Average Record
Temperature  
Mean Temperature 75 °F -  
Max Temperature 86 °F 76 °F 94 °F (1980)
Min Temperature 64 °F 61 °F 53 °F (1969)
Cooling Degree Days 10    
Growing Degree Days 25 (Base 50)    
Moisture  
Dew Point 66 °F    
Average Humidity 71    
Maximum Humidity 90    
Minimum Humidity 57    
Precipitation  
Precipitation 0.01 in - - ()
Sea Level Pressure  
Sea Level Pressure 29.97 in    
Wind  
Wind Speed 5 mph (SSW)    
Max Wind Speed 10 mph    
Max Gust Speed -    
Visibility 10 miles    
Events Rain    
Averages and records for this station are not official NWS values.
T = Trace of Precipitation, MM = Missing Value Source: NWS Daily Summary

Daily Weather History Graph

Daily Weather History Graph

Search for Another Location

Airport:

Trip Planner

Search our weather history database for the weather conditions in past years. The results will help you decide how hot, cold, wet, or windy it might be!

Date:

Astronomy

Aug. 27, 2014 Rise Set
Actual Time 6:12 AM EDT 7:32 PM EDT
Civil Twilight 5:44 AM EDT 8:01 PM EDT
Nautical Twilight 5:09 AM EDT 8:35 PM EDT
Astronomical Twilight 4:33 AM EDT 9:11 PM EDT
Moon 8:08 AM EDT (8/27) 8:21 PM EDT (8/27)
Length of Visible Light 14h 16m
Length of Day
13h 19m
Waxing Crescent, 4% of the Moon is Illuminated
Aug 27
Waxing Crescent
Sep 2
First Quarter
Sep 8
Full
Sep 15
Last Quarter
Sep 24
New

Hourly Weather History & Observations

Time (EDT) Temp. Heat Index Dew Point Humidity Pressure Visibility Wind Dir Wind Speed Gust Speed Precip Events Conditions
12:53 AM 73.0 °F - 64.9 °F 76% 30.08 in 10.0 mi SW 5.8 mph - N/A   Clear
1:53 AM 73.0 °F - 64.9 °F 76% 30.06 in 10.0 mi Variable 3.5 mph - N/A   Clear
2:53 AM 73.0 °F - 64.9 °F 76% 30.04 in 10.0 mi Calm Calm - N/A   Clear
3:53 AM 71.1 °F - 64.0 °F 78% 30.03 in 10.0 mi Calm Calm - N/A   Clear
4:53 AM 66.0 °F - 61.0 °F 84% 30.03 in 10.0 mi Calm Calm - N/A   Clear
5:53 AM 64.0 °F - 61.0 °F 90% 30.03 in 10.0 mi Calm Calm - N/A   Scattered Clouds
6:53 AM 64.9 °F - 62.1 °F 90% 30.03 in 10.0 mi Calm Calm - N/A   Scattered Clouds
7:53 AM 73.0 °F - 64.0 °F 73% 30.04 in 10.0 mi WSW 4.6 mph - N/A   Scattered Clouds
8:53 AM 75.0 °F - 64.9 °F 71% 30.04 in 10.0 mi SSW 9.2 mph - N/A   Clear
9:53 AM 75.9 °F - 66.0 °F 71% 30.03 in 10.0 mi SSW 8.1 mph - N/A   Scattered Clouds
10:53 AM 78.1 °F - 66.0 °F 66% 30.01 in 10.0 mi SSW 9.2 mph - N/A   Clear
11:53 AM 82.0 °F 84.9 °F 68.0 °F 62% 29.99 in 10.0 mi Variable 6.9 mph - N/A   Clear
12:53 PM 82.0 °F 84.5 °F 66.9 °F 60% 29.97 in 10.0 mi SSW 10.4 mph - N/A   Clear
1:53 PM 84.9 °F 88.2 °F 68.0 °F 57% 29.94 in 10.0 mi SSW 8.1 mph - N/A   Partly Cloudy
2:53 PM 86.0 °F 90.4 °F 69.8 °F 58% 29.92 in 10.0 mi South 8.1 mph - N/A   Partly Cloudy
3:53 PM 84.9 °F 88.8 °F 69.1 °F 59% 29.90 in 10.0 mi South 9.2 mph - N/A   Clear
4:53 PM 84.9 °F 89.4 °F 70.0 °F 61% 29.89 in 10.0 mi South 8.1 mph - N/A   Clear
5:53 PM 82.9 °F 85.4 °F 66.9 °F 58% 29.88 in 10.0 mi South 6.9 mph - N/A   Clear
6:53 PM 81.0 °F 83.0 °F 66.0 °F 60% 29.88 in 10.0 mi SSW 8.1 mph - N/A   Clear
7:53 PM 79.0 °F - 68.0 °F 69% 29.91 in 10.0 mi NW 5.8 mph - N/A   Overcast
8:53 PM 79.0 °F - 66.0 °F 64% 29.90 in 10.0 mi South 8.1 mph - N/A   Clear
9:53 PM 77.0 °F - 66.9 °F 71% 29.89 in 9.0 mi Variable 3.5 mph - 0.00 in Rain Light Rain
10:53 PM 75.0 °F - 69.1 °F 82% 29.89 in 10.0 mi Calm Calm - 0.01 in   Clear
11:53 PM 73.0 °F - 69.1 °F 87% 29.88 in 10.0 mi North 3.5 mph - N/A   Clear